Volver al catálogo

FENGYUN 1C DEB

LostSSO
NORAD 38113·DEBRIS·🇨🇳 China

Lanzado May 10, 1999 desde Taiyuan Satellite Launch Center

Loading…

Próximos Pases (próximas 24 horas)

TLE

ObsoletoSource: Space-Track

Época: Jan 11, 2024, 02:46 UTC

1 38113U 99025EPJ 24011.11533997  .00008329  00000-0  43464-2 0  9992
2 38113  98.4487 326.1761 0131483 329.8923  29.4737 14.10337734718191

Sigue FENGYUN 1C DEB en tiempo real con AllMySat

Download on the App Store